GW2092 Weather Reports


time (UTC)temp
F
wind
direction
speed
knots
gust
knots
rain 1hr
in
rain 24hr
in
rain mn
in
humidity
%
barometer
mb
20260508113049 48 0 0.0 0.0 0.00 0.00 0.00 85 1013.8
20260508111537 48 0 0.0 0.9 0.00 0.00 0.00 84 1013.6
20260508110052 48 0 0.0 1.7 0.00 0.00 0.00 83 1013.3
20260508104544 48 0 0.0 0.0 0.00 0.00 0.00 83 1013.4
20260508103045 48 0 0.0 0.9 0.00 0.00 0.00 84 1013.4
20260508101541 48 0 0.0 0.0 0.00 0.00 0.00 83 1013.4
20260508100039 48 0 0.0 0.0 0.00 0.00 0.00 82 1013.1
20260508094538 48 0 0.0 0.0 0.00 0.00 0.00 82 1013.1
20260508093048 48 0 0.0 0.9 0.00 0.00 0.00 82 1013.0
20260508091551 48 0 0.0 0.0 0.00 0.00 0.00 82 1013.1
20260508090045 48 0 0.0 0.0 0.00 0.00 0.00 81 1013.0
20260508084538 49 0 0.0 0.0 0.00 0.00 0.00 81 1013.1
20260508083053 48 0 0.0 0.0 0.00 0.00 0.00 81 1013.1
20260508081539 48 0 0.0 0.0 0.00 0.00 0.00 81 1013.2
20260508080046 48 0 0.0 0.0 0.00 0.00 0.00 81 1013.5
20260508074550 48 0 0.0 0.9 0.00 0.00 0.00 82 1013.6
20260508073044 49 0 0.0 0.0 0.00 0.00 0.00 81 1013.7
20260508071549 49 0 0.0 0.0 0.00 0.00 0.00 80 1013.8
20260508070039 50 0 0.0 0.9 0.00 0.00 0.00 79 1013.9
20260508064540 50 0 0.0 0.0 0.00 0.00 0.00 78 1014.0
20260508063038 50 0 0.0 0.9 0.00 0.00 0.00 78 1014.0
20260508061545 50 0 0.0 0.9 0.00 0.00 0.00 79 1014.1
20260508060045 50 0 0.0 0.9 0.00 0.00 0.00 79 1014.2
20260508054543 49 0 0.0 0.0 0.00 0.00 0.00 80 1014.3
20260508053046 49 0 0.0 0.0 0.00 0.00 0.00 81 1014.3
20260508051540 48 0 0.0 0.0 0.00 0.00 0.00 83 1014.4
20260508050045 47 0 0.0 0.0 0.00 0.00 0.00 85 1014.6
20260508044544 47 0 0.0 0.0 0.00 0.00 0.00 85 1014.8
20260508043045 47 0 0.0 0.0 0.00 0.00 0.00 86 1014.9
20260508041542 48 0 0.0 0.0 0.00 0.00 0.00 86 1015.0
20260508040040 48 0 0.0 0.0 0.00 0.00 0.00 85 1015.0
20260508034547 48 0 0.0 0.0 0.00 0.00 0.00 84 1015.2
20260508033047 49 0 0.0 0.0 0.00 0.00 0.00 82 1015.2
20260508031543 50 0 0.0 0.0 0.00 0.00 0.00 83 1015.3
20260508030045 50 0 0.0 0.0 0.00 0.00 0.00 82 1015.3
20260508024549 51 0 0.0 0.0 0.00 0.00 0.00 80 1015.3
20260508023047 51 0 0.0 0.0 0.00 0.00 0.00 81 1015.3
20260508021553 52 0 0.0 0.0 0.00 0.00 0.00 79 1015.0
20260508020045 53 0 0.0 0.0 0.00 0.00 0.00 76 1014.7
20260508014544 54 0 0.0 0.0 0.00 0.00 0.00 75 1014.5
20260508013043 55 0 0.0 0.0 0.00 0.00 0.00 71 1014.3
20260508011546 57 0 0.0 0.0 0.00 0.00 0.00 66 1014.2
20260508010045 59 0 0.0 0.0 0.00 0.00 0.00 63 1014.3
20260508004546 61 0 0.0 0.0 0.00 0.00 0.00 59 1014.1
20260508003043 62 0 0.0 0.0 0.00 0.00 0.00 56 1014.1
20260508001545 63 207 0.0 0.9 0.00 0.00 0.00 55 1014.2
20260508000044 64 0 0.0 2.6 0.00 0.00 0.00 52 1014.3
20260507234544 65 206 0.0 1.7 0.00 0.00 0.00 50 1014.4
20260507233045 66 0 0.0 2.6 0.00 0.00 0.00 48 1014.4
20260507231552 68 283 0.0 1.7 0.00 0.00 0.00 49 1014.5
20260507230047 70 238 0.0 2.6 0.00 0.00 0.00 45 1014.5
20260507224540 70 0 0.0 2.6 0.00 0.00 0.00 43 1014.6
20260507223047 70 0 0.0 2.6 0.00 0.00 0.00 44 1014.8
20260507221547 71 285 0.0 1.7 0.00 0.00 0.00 43 1014.8
20260507220045 70 0 0.0 4.3 0.00 0.00 0.00 45 1014.9
20260507214605 70 207 0.9 3.5 0.00 0.00 0.00 45 1015.1
20260507213048 70 122 0.9 6.1 0.00 0.00 0.00 42 1015.2
20260507211538 70 0 0.9 4.3 0.00 0.00 0.00 42 1015.4
20260507210050 71 11 0.0 3.5 0.00 0.00 0.00 44 1015.5
20260507204544 71 0 0.0 2.6 0.00 0.00 0.00 42 1015.9
20260507203052 71 146 0.0 2.6 0.00 0.00 0.00 43 1016.0
20260507201546 70 155 0.0 5.2 0.00 0.00 0.00 43 1016.3
20260507200043 70 207 0.0 3.5 0.00 0.00 0.00 43 1016.5
20260507194608 70 173 0.0 6.1 0.00 0.00 0.00 46 1016.7
20260507193038 70 0 0.9 2.6 0.00 0.00 0.00 44 1016.7
20260507191542 70 337 0.0 4.3 0.00 0.00 0.00 41 1016.9
20260507190044 69 0 0.0 2.6 0.00 0.00 0.00 46 1017.0
20260507184545 70 165 0.0 2.6 0.00 0.00 0.00 42 1017.3
20260507183041 70 23 0.0 1.7 0.00 0.00 0.00 42 1017.4
20260507181539 69 113 0.0 3.5 0.00 0.00 0.00 42 1017.5
20260507180040 69 0 0.0 3.5 0.00 0.00 0.00 40 1017.7
20260507174549 69 200 0.0 2.6 0.00 0.00 0.00 44 1017.9
20260507173044 68 0 0.9 4.3 0.00 0.00 0.00 43 1018.1
20260507171547 68 213 0.0 4.3 0.00 0.00 0.00 48 1018.5
20260507170043 68 0 0.0 2.6 0.00 0.00 0.00 44 1018.8
20260507164538 67 181 0.0 2.6 0.00 0.00 0.00 45 1018.8
20260507163037 67 357 0.0 3.5 0.00 0.00 0.00 44 1019.0
20260507161540 66 239 0.0 2.6 0.00 0.00 0.00 45 1018.9
20260507160045 66 255 0.0 2.6 0.00 0.00 0.00 44 1019.1
20260507154543 65 204 0.0 2.6 0.00 0.00 0.00 45 1019.2
20260507153043 65 27 0.0 2.6 0.00 0.00 0.00 45 1019.4
20260507151539 63 0 0.0 2.6 0.00 0.00 0.00 46 1019.6
20260507150047 62 0 0.0 3.5 0.00 0.00 0.00 50 1019.6
20260507144545 61 0 0.0 3.5 0.00 0.00 0.00 53 1019.5
20260507143045 60 0 0.0 2.6 0.00 0.00 0.00 57 1019.4
20260507141544 58 127 0.0 3.5 0.00 0.00 0.00 60 1019.5
20260507140040 56 211 0.9 3.5 0.00 0.00 0.00 60 1019.6
20260507134539 55 0 0.9 2.6 0.00 0.00 0.00 62 1019.6
20260507133048 54 138 0.0 1.7 0.00 0.00 0.00 63 1019.5
20260507131605 53 131 0.0 1.7 0.00 0.00 0.00 65 1019.6
20260507130043 51 224 0.0 0.9 0.00 0.00 0.00 68 1019.5
20260507124544 50 0 0.0 0.9 0.00 0.00 0.00 71 1019.3
20260507123043 47 0 0.0 0.9 0.00 0.00 0.00 78 1019.3
20260507121539 45 0 0.0 0.0 0.00 0.00 0.00 86 1019.2
20260507120039 43 0 0.0 0.0 0.00 0.00 0.00 92 1018.9
20260507114547 39 0 0.0 0.0 0.00 0.00 0.00 92 1018.9